Regional Weather Roundup
Issued by NWS

Home | Current Version | Previous Version | Graphics & Text | Print | Product List | Glossary On
Versions: 1 2 3 4 5 6 7 8 9 10 11 12 13 14 15 16 17 18 19 20 21 22 23 24 25 26 27 28 29 30 31 32 33 34 35 36 37 38 39 40 41 42 43 44 45 46 47 48 49 50
000
ASUS43 KMPX 251010
RWRMN
WEATHER ROUNDUP FOR MINNESOTA
NATIONAL WEATHER SERVICE TWIN CITIES/CHANHASSEN MN
500 AM CDT SAT OCT 25 2014


NOTE: "FAIR" INDICATES FEW OR NO CLOUDS BELOW 12,000 FEET WITH NO
SIGNIFICANT WEATHER AND/OR OBSTRUCTIONS TO VISIBILITY. N/A MEANS
CURRENT SKY AND/OR WEATHER CONDITIONS ARE NOT AVAILABLE.

MNZ060>063-068>070-251100-
   Twin Cities Metro

CITY           SKY/WX    TMP DP  RH WIND       PRES   REMARKS
TWIN CITIES    PTCLDY    56  35  45 NW10      29.96R
ST PAUL        CLEAR     55  36  48 NW13      29.97R
CRYSTAL        CLEAR     56  35  45 NW9       29.96R
BLAINE         CLEAR     54  37  54 W10       29.96R
LAKEVILLE      CLEAR     52  37  58 W8        29.97R
EDEN PRAIRIE   CLEAR     57  36  45 NW10      29.96R
SOUTH ST PAUL  CLEAR     58  34  40 NW9       29.96R
LAKE ELMO      FAIR      54  36  50 NW10      29.97R
$$
MNZ001>005-007-008-013>017-022>024-027-028-251100-
   Northwest Minnesota

CITY           SKY/WX    TMP DP  RH WIND       PRES   REMARKS
BEMIDJI        CLEAR     44  31  62 W13       29.94R
HALLOCK        CLEAR     37  30  75 W10       29.94R
ROSEAU         CLEAR     43  34  70 W7        29.90R
WARROAD        CLEAR     43  34  70 SW7       29.88R
THIEF RVR FALL CLEAR     39  30  70 SW8       29.96R
CROOKSTON      PTCLDY    43  34  70 W9        30.00R
FOSSTON        CLEAR     37  30  75 W6        29.98R
DETROIT LAKES  CLEAR     45  34  65 NW13      30.00S
MOORHEAD       PTCLDY    48  32  53 W9        30.03S
PARK RAPIDS    CLEAR     45  32  60 NW12      29.96R
MAHNOMEN       FAIR      38  31  76 W10       29.99S
$$
MNZ006-009>011-018-025>026-251100-
   North Central Minnesota

CITY           SKY/WX    TMP DP  RH WIND       PRES   REMARKS
BAUDETTE       CLEAR     45  32  60 NW8       29.87R
FLAG ISLAND    CLEAR     46  36  66 W17       29.83R
INTL FALLS     CLEAR     44  33  65 W9        29.81R
WASKISH        CLEAR     46  36  66 W13G18    29.90R
BIG FORK       CLEAR     48  32  53 W8        29.87R
LONGVILLE      CLEAR     48  34  57 NW12G21   29.92R
GRAND RAPIDS   CLEAR     48  30  49 W15       29.88R
CRANE LAKE     CLEAR     46  32  57 W5        29.81R
ORR            CLEAR     46  30  53 W16G23    29.80R
COOK           CLEAR     46  34  61 W14       29.83R
WALKER         FAIR      46  31  56 W13G18    29.93R
$$
MNZ012-019>021-037-251100-
   Northeast Minnesota

CITY           SKY/WX    TMP DP  RH WIND       PRES   REMARKS
DULUTH         CLEAR     51  33  50 W16       29.83R
ELY            CLEAR     48  30  49 W17G28    29.77R
HIBBING        CLEAR     50  31  48 NW13      29.84R
EVELETH        CLEAR     50  32  50 W13G18    29.83S
DULUTH HARBOR  CLEAR     52  39  62 SW9       29.84S
TWO HARBORS    CLEAR     52  23  32 W9        29.78R
SILVER BAY     CLEAR     54  34  47 W8G24     29.75R
GRAND MARAIS     N/A     53  34  48 NW13G28   29.66F
G MARAIS ARPRT CLEAR     46  30  53 W15G30    29.69S
$$
MNZ029>031-032-039>041-046>048-054>057-064-251100-
   West Central Minnesota

CITY           SKY/WX    TMP DP  RH WIND       PRES   REMARKS
FERGUS FALLS   CLEAR     41  28  60 NW6       30.04R
WHEATON        MOCLDY    50  36  57 W9        30.07R
MORRIS         MOCLDY    50  37  62 NW10      30.01F
ALEXANDRIA     CLEAR     48  33  56 NW9       30.01S
ELBOW LAKE     FAIR      44  34  68 NW7       30.02S
WADENA         CLEAR     46  34  61 NW8       29.99R
GLENWOOD       PTCLDY    46  36  66 W8        30.00F
APPLETON       CLOUDY    55  36  47 NW7       30.03S
BENSON         MOCLDY    52  37  58 NW6       30.02S
ORTONVILLE     CLOUDY    55  34  44 NW10      30.04F
MADISON        CLOUDY    55  37  50 W7        30.04S
WILLMAR        FAIR      54  36  50 NW9       30.02F
$$
MNZ033>034-036-042>043-049>051-058-059-251100-
   Central Minnesota

CITY           SKY/WX    TMP DP  RH WIND       PRES   REMARKS
ST CLOUD       CLEAR     54  34  46 W10       29.97R
SAUK CENTRE    FAIR      42  34  72 W3        30.00S
PAYNESVILLE    PTCLDY    43  34  70 SW8       30.01R
AITKIN         CLEAR     50  34  53 W3        29.90S
PINE RIVER     CLEAR     46  34  61 W5        29.98R
BRAINERD       CLEAR     49  34  56 W10       29.95R
STAPLES        CLEAR     43  34  70 W8        29.98R
LONG PRAIRIE   FAIR      46  32  57 W8        30.00S
LITTLE FALLS   CLEAR     48  32  53 W5        29.97S
LITCHFIELD     PTCLDY    55  36  47 NW9       30.01S
BUFFALO        CLEAR     53  35  49 W9        29.99S
MAPLE LAKE     CLEAR     52  38  57 W7        29.99S
$$
MNZ037-044-045-052-053-251100-
   East Central Minnesota

CITY           SKY/WX    TMP DP  RH WIND       PRES   REMARKS
PRINCETON      CLEAR     48  36  61 W7        29.97R
MORA           CLEAR     50  32  50 W8        29.95R
CAMBRIDGE      CLEAR     54  37  54 W8        29.93R
RUSH CITY      PTCLDY    47  36  64 W5        29.94R
MOOSE LAKE     CLEAR     50  32  50 W9        29.87S
HINCKLEY       FAIR      48  36  61 W7        29.92R
CLOQUET        CLEAR     50  32  50 W10       29.86R
MCGREGOR       CLEAR     52  34  50 W9        29.90S
$$
MNZ071>073-080-081-089-090-097-098-251100-
   Southwest Minnesota

CITY           SKY/WX    TMP DP  RH WIND       PRES   REMARKS
MONTEVIDEO     MOCLDY    54  37  54 N6        30.04R
GRANITE FALLS  MOCLDY    49  40  69 W7        30.05R
CANBY          CLOUDY    56  35  45 NW7       30.06S
MARSHALL       CLOUDY    54  34  47 NW10      30.04S
REDWOOD FALLS  MOCLDY    56  36  47 NW12      30.03R
OLIVIA         MOCLDY    52  39  62 NW7       30.02R
PIPESTONE      MOCLDY    54  37  54 N5        30.06R
WINDOM         CLOUDY    55  36  47 NW15      30.04R
WORTHINGTON    MOCLDY    52  37  58 NW5       30.07R
JACKSON        MOCLDY    54  36  50 NW8       30.04R
TRACY          CLOUDY    56  37  47 NW10G16   30.05R
SLAYTON        MOCLDY    51  37  57 NW7       30.07R
$$
MNZ065>067-074>077-082>085-091>093-251100-
   South Central Minnesota

CITY           SKY/WX    TMP DP  RH WIND       PRES   REMARKS
MANKATO        PTCLDY    52  37  58 NW10      30.00R
NEW ULM        PTCLDY    52  39  62 NW9       30.01R
ST JAMES       MOCLDY    54  39  58 W6        30.03R
FAIRMONT       MOCLDY    55   0  10 NW9       30.02R
GLENCOE        PTCLDY    52  42  67 W8        29.99R
FARIBAULT      CLEAR     48  39  71 W5        29.99R
OWATONNA       CLEAR     45  39  81 CALM      29.99R
WASECA         PTCLDY    41  34  75 W3        30.01R
ALBERT LEA     CLEAR     48  41  76 W5        30.00R
$$
MNZ078>079-086>088-094>096-251100-
   Southeast Minnesota

CITY           SKY/WX    TMP DP  RH WIND       PRES   REMARKS
ROCHESTER      CLEAR     50  42  74 NW8       29.97S
RED WING       PTCLDY    41  39  93 N3        29.95R FOG
STANTON        CLEAR     46  40  77 SW5       29.96R
DODGE CENTER   CLEAR     48  43  81 W9        29.98S
WINONA         CLEAR     48  46  93 NW3       29.94R
AUSTIN         CLEAR     48  41  76 NW6       29.98S
PRESTON        CLEAR     48  43  80 NW8       29.96S
$$
ABBREVIATIONS USED IN REMARKS
   TC - TEMPERATURES IN CELSIUS
  WCI - WIND CHILL INDEX
   HX - HEAT INDEX
  VSB - VISIBILITY
$$



USA.gov is the U.S. government's official web portal to all federal, state and local government web resources and services.